Flag for Germany Weather past 2 weeks in Unna, North Rhine-Westphalia, Germany

Now
64 °F

Clear.


Feels Like: 64 °F
Forecast: 55 / 78 °F
Wind: 2 mph from North

Location: Dortmund / Wickede

Current Time: Jun 30, 2015 at 1:23:00 AM

Latest Report: Jun 29, 2015 at 10:50 PM


Visibility: 10 mi

Pressure: 30.18 "Hg

Humidity: 64%

Dew point: 52 °F

Location of UnnaLocation

Historic Weather in Unna — Graph

°F

Unna temperature yesterday

Maximum temperature yesterday: 77 °F (at 4:50 PM)
Minimum temperature yesterday: 63 °F (at 10:20 PM)
Average temperature yesterday: 71 °F

Past Weeks' High & Low Weather Summary

 TemperatureHumidityPressure
High77 °F (Jun 26, 12:50 PM)94% (Jun 20, 6:20 AM)30.27 "Hg (Jun 20, 6:20 AM)
Low41 °F (Jun 16, 5:20 AM)31% (Jun 28, 3:20 PM)29.68 "Hg (Jun 22, 7:50 PM)
Average60 °F64%30.06 "Hg
* Reported Jun 14 10:20 PM — Jun 29 10:50 PM, Unna, Weather by CustomWeather, © 2015

Note: Actual official high and low records may vary slightly from our data, if they occured in-between our weather recording intervals... More about our weather records

Advertising

Unna weather history for previous 24 hours

 ConditionsComfort  
Time TempWeatherWind HumidityBarometerVisibility
10:50 PM
Mon, Jun 29
64 °FClear.2 mph64%30.18 "Hg10 mi
10:20 PM63 °FSunny.3 mph64%30.18 "Hg10 mi
9:50 PM64 °FSunny.2 mph60%30.18 "Hg10 mi
9:20 PM66 °FSunny.2 mph56%30.18 "Hg10 mi
8:50 PM70 °FSunny.3 mph46%30.15 "Hg10 mi
8:20 PM72 °FSunny.3 mph44%30.15 "Hg10 mi
7:50 PM73 °FSunny.6 mph38%30.15 "Hg10 mi
7:20 PM75 °FSunny.6 mph36%30.15 "Hg10 mi
6:50 PM73 °FSunny.6 mph41%30.15 "Hg10 mi
6:20 PM73 °FPassing clouds.6 mph41%30.15 "HgN/A
5:50 PM75 °FSunny.7 mph41%30.15 "Hg10 mi
5:20 PM75 °FSunny.8 mph39%30.15 "Hg10 mi
4:50 PM77 °FSunny.8 mph36%30.15 "Hg10 mi
4:20 PM75 °FSunny.7 mph39%30.15 "Hg10 mi
3:50 PM75 °FSunny.7 mph44%30.15 "Hg10 mi
3:20 PM75 °FSunny.7 mph47%30.15 "Hg10 mi
2:50 PM75 °FScattered clouds.8 mph47%30.15 "HgN/A
2:20 PM75 °FScattered clouds.8 mph47%30.15 "HgN/A
1:50 PM73 °FScattered clouds.8 mph50%30.15 "HgN/A
1:20 PM72 °FScattered clouds.8 mph53%30.15 "HgN/A
12:50 PM73 °FScattered clouds.7 mph50%30.15 "HgN/A
12:20 PM72 °FPassing clouds.6 mph53%30.12 "HgN/A
11:50 AM72 °FPassing clouds.7 mph53%30.15 "HgN/A
11:20 AM70 °FSunny.6 mph60%30.15 "Hg10 mi
10:50 AM70 °FSunny.6 mph60%30.12 "Hg10 mi
10:20 AM70 °FSunny.6 mph60%30.12 "Hg10 mi
9:50 AM70 °FSunny.5 mph60%30.12 "Hg10 mi
9:20 AM68 °FClear.3 mph64%30.12 "HgN/A
8:50 AM68 °FSunny.5 mph60%30.12 "Hg10 mi
8:20 AM68 °FSunny.6 mph60%30.09 "Hg10 mi
7:50 AM68 °FSunny.5 mph60%30.09 "Hg10 mi
7:20 AM64 °FSunny.6 mph68%30.09 "Hg10 mi
6:50 AM64 °FSunny.8 mph64%30.09 "Hg10 mi
6:20 AM64 °FSunny.7 mph64%30.09 "Hg10 mi
5:50 AM64 °FClear.9 mph60%30.09 "Hg10 mi
Weather by CustomWeather, © 2015

See weather overviewHow to use our weather pages